Probability
0 0 0 0 0 0 0 0 0 0 0 0 0 0 0 0 0 0 0 0 0 0 0 0 0 1 2 3 3 4 6 6 3 1 0 0 0 0 0 0 0 0 0 0
0 0 0 0 0 0 0 0 0 0 0 0 0 0 0 0 0 0 0 0 0 0 0 0 0 0 1 2 3 4 5 5 3 1 0 0 0 0 0 0 0 0 0 0
0 0 0 0 0 0 0 0 0 0 0 0 0 0 0 0 0 0 0 0 0 0 0 0 0 0 0 1 2 3 4 4 2 1 0 0 0 0 0 0 0 0 0 0
0 0 0 0 0 0 0 0 0 0 0 0 0 0 0 0 0 0 0 0 0 0 0 0 0 0 0 0 1 3 3 2 1 0 0 0 0 0 0 0 0 0 0 0
0 0 0 0 0 0 0 0 0 0 0 0 0 0 0 0 0 0 0 0 0 0 0 0 0 0 0 0 1 3 3 2 1 0 0 0 0 0 0 0 0 0 0 0
0 0 0 0 0 0 0 0 0 0 0 0 0 0 0 0 0 0 0 0 0 0 0 0 0 0 0 0 2 3 3 2 1 0 0 0 0 0 0 0 0 0 0 0
0 0 0 0 0 0 0 0 0 0 0 0 0 0 0 0 0 0 0 0 0 0 0 0 0 0 0 0 1 2 2 2 1 0 0 0 0 0 0 0 0 0 0 0
0 0 0 0 0 0 0 0 0 0 0 0 0 0 0 0 0 0 0 0 0 0 0 0 0 0 0 0 0 0 1 1 1 0 0 0 0 0 0 0 0 0 0 0
0 0 0 0 0 0 0 0 0 0 0 0 0 0 0 0 0 0 0 0 0 0 0 0 0 0 0 0 0 0 0 0 0 0 0 0 0 0 0 0 0 0 0 0
0 0 0 0 0 0 0 0 0 0 0 0 0 0 0 0 0 0 0 0 0 0 0 0 0 0 0 0 0 0 0 0 0 0 0 0 0 0 0 0 0 0 0 0
0 0 0 0 0 0 0 0 0 0 0 0 0 0 0 0 0 0 0 0 0 0 0 0 0 0 0 0 0 0 0 0 0 0 0 0 0 0 0 0 0 0 0 0
0 0 0 0 0 0 0 0 0 0 0 0 0 0 0 0 0 0 0 0 0 0 0 0 0 0 0 0 0 0 0 0 0 0 0 0 0 0 0 0 0 0 0 0
0 0 0 0 0 0 0 0 0 0 0 0 0 0 0 0 0 0 0 0 0 0 0 0 0 0 0 0 0 0 0 0 0 0 0 0 0 0 0 0 0 0 0 0
0 0 0 0 0 0 0 0 0 0 0 0 0 0 0 0 0 0 0 0 0 0 0 0 0 0 0 0 0 0 0 0 0 0 0 0 0 0 0 0 0 0 0 0
0 0 0 0 0 0 0 0 0 0 0 0 0 0 0 0 0 0 0 0 0 0 0 0 0 0 0 0 0 0 0 0 0 0 0 0 0 0 0 0 0 0 0 0
0 0 0 0 0 0 0 0 0 0 0 0 0 0 0 0 0 0 0 0 0 0 0 0 0 0 0 0 0 0 0 0 0 0 0 0 0 0 0 0 0 0 0 0
0 0 0 0 0 0 0 0 0 0 0 0 0 0 0 0 0 0 0 0 0 0 0 0 0 0 0 0 0 0 0 0 0 0 0 0 0 0 0 0 0 0 0 0
0 0 0 0 0 0 0 0 0 0 0 0 0 0 0 0 0 0 0 0 0 0 0 0 0 0 0 0 0 0 0 0 0 0 0 0 0 0 0 0 0 0 0 0
0 0 0 0 0 0 0 0 0 0 0 0 0 0 0 0 0 0 0 0 0 0 0 0 0 0 0 0 0 0 0 0 0 0 0 0 0 0 0 0 0 0 0 0
0 0 0 0 0 0 0 0 0 0 0 0 0 0 0 0 0 0 0 0 0 0 0 0 0 0 0 0 0 0 0 0 0 0 0 0 0 0 0 0 0 0 0 0
0 0 0 0 0 0 0 0 0 0 0 0 0 0 0 0 0 0 0 0 0 0 0 0 0 0 0 0 0 0 0 0 0 0 0 0 0 0 0 0 0 0 0 0
0 0 0 0 0 0 0 0 0 0 0 0 0 0 0 0 0 0 0 0 0 0 0 0 0 0 0 0 0 0 0 0 0 0 0 0 0 0 0 0 0 0 0 0
0 0 0 0 0 0 0 0 0 0 0 0 0 0 0 0 0 0 0 0 0 0 0 0 0 0 0 0 0 0 0 0 0 0 0 0 0 0 0 0 0 0 0 0
0 0 0 0 0 0 0 0 0 0 0 0 0 0 0 0 0 0 0 0 0 0 0 0 0 0 0 0 0 0 0 0 0 0 0 0 0 0 0 0 0 0 0 0
0 0 0 0 0 0 0 0 0 0 0 0 0 0 0 0 0 0 0 0 0 0 0 0 0 0 0 0 0 0 0 0 0 0 0 0 0 0 0 0 0 0 0 0
0 0 0 0 0 0 0 0 0 0 0 0 0 0 0 0 0 0 0 0 0 0 0 0 0 0 0 0 0 0 0 0 0 0 0 0 0 0 0 0 0 0 0 0
0 0 0 0 0 0 0 0 0 0 0 0 0 0 0 0 0 0 0 0 0 0 0 0 0 0 0 0 0 0 0 0 0 0 0 0 0 0 0 0 0 0 0 0
Wind_Speed
6 8 6 8 10 9 6 5 5 4 5 5 6 6 7 9 11 13 13 13 12 10 8 7 6 5 5 6 7 7 7 7 7 6 5 4 3 3 2 1 2 3 3 4
4 6 6 6 8 5 5 5 6 8 5 5 5 7 9 10 12 13 13 14 14 13 11 10 9 8 7 7 7 7 8 8 7 6 6 5 5 3 2 1 0 1 2 3
4 6 4 4 5 6 8 9 6 5 3 6 8 11 7 8 11 11 11 12 12 12 12 12 11 9 8 9 7 8 9 8 7 7 7 7 6 5 4 2 1 1 1 2
2 3 1 1 4 10 11 10 8 5 5 6 7 8 3 6 8 9 11 11 11 11 12 12 12 11 9 7 6 8 9 8 8 8 8 7 7 6 5 3 3 3 2 2
3 2 3 2 3 1 3 5 7 6 7 8 8 6 3 5 7 7 7 8 8 8 9 11 12 13 11 7 5 6 8 9 9 9 9 8 8 8 6 4 4 3 3 4
4 3 4 1 9 10 3 4 6 8 8 9 9 6 6 9 10 11 9 8 8 8 8 10 11 12 12 9 7 7 8 9 9 10 10 10 10 8 5 5 5 5 4 4
2 3 1 6 11 9 3 4 8 7 8 8 6 7 10 12 11 10 10 10 9 8 8 8 9 9 10 10 10 9 8 7 8 9 10 10 9 7 7 6 6 5 5 4
2 1 2 8 7 6 2 5 6 8 9 10 11 12 13 12 11 11 10 10 9 7 8 8 7 7 9 10 10 11 10 8 8 9 9 9 9 8 8 8 7 6 5 4
3 2 1 3 3 1 3 6 8 9 12 12 13 13 13 12 12 11 11 10 8 8 9 8 7 7 8 9 10 11 11 10 8 8 8 8 10 10 8 8 7 6 6 6
4 3 1 2 2 3 5 8 11 12 13 13 14 14 14 12 11 10 10 10 8 8 9 9 8 8 8 9 8 9 11 11 8 7 7 8 8 8 9 9 8 8 7 7
4 2 4 4 6 8 9 11 13 13 13 14 14 14 14 12 11 10 9 8 8 8 9 11 10 9 9 8 7 8 10 9 8 6 7 8 8 9 11 10 12 11 9 8
1 3 4 8 10 11 12 13 15 15 14 13 12 13 13 12 10 10 10 9 9 9 10 11 10 10 10 8 6 7 8 8 6 5 6 7 7 6 8 8 14 15 13 11
4 6 7 11 13 13 13 14 15 13 13 13 11 11 11 10 9 10 11 11 11 11 11 11 11 10 10 8 7 7 7 8 6 6 5 6 8 9 7 4 8 14 16 16
6 6 8 10 12 13 13 14 12 12 11 11 10 11 11 11 11 12 13 12 12 12 12 11 11 11 10 9 8 8 8 8 7 6 5 6 8 9 9 9 7 5 7 13
8 7 9 11 11 12 12 11 12 12 11 11 10 11 12 13 13 13 12 12 12 12 12 11 12 12 10 9 8 9 7 6 5 5 5 6 7 9 9 10 9 7 4 4
9 10 10 11 12 12 12 12 12 12 12 13 12 12 13 13 14 14 13 12 12 13 13 12 12 12 11 9 8 7 7 9 7 5 5 5 7 8 9 9 9 9 8 7
8 9 10 11 12 12 12 12 11 12 13 13 14 14 14 14 14 14 13 12 12 13 13 13 13 12 11 9 8 6 6 6 9 6 5 5 6 9 9 10 10 10 9 10
8 9 10 12 13 14 14 13 12 13 13 14 15 14 14 14 15 15 15 14 14 14 13 12 12 11 10 10 7 6 5 5 5 5 5 5 5 7 9 10 11 11 7 9
11 11 11 12 13 13 13 13 14 13 13 14 14 14 14 15 15 15 15 14 15 15 13 11 14 12 10 11 10 5 5 5 5 5 5 5 6 6 8 10 10 11 10 10
11 12 13 13 13 13 13 13 13 13 13 13 14 14 15 15 15 16 15 14 12 12 12 12 11 10 9 9 11 5 5 5 5 5 4 5 5 6 8 9 10 11 11 11
13 13 14 13 13 13 12 13 13 14 13 13 14 16 17 16 16 15 14 13 13 12 12 13 10 8 7 7 8 4 5 5 5 5 4 4 4 6 8 9 10 10 11 11
11 12 13 13 13 13 12 11 12 13 14 14 16 17 17 17 16 15 14 12 12 14 11 9 8 9 10 9 5 5 5 6 5 4 4 3 4 5 7 9 9 9 10 11
11 11 11 12 12 13 13 11 11 12 14 16 17 18 17 16 14 13 14 11 11 14 11 9 11 13 14 7 5 5 6 6 5 4 4 3 4 5 6 8 8 9 10 10
10 10 11 11 10 11 12 13 12 12 14 16 16 17 16 14 13 11 12 15 16 16 11 11 13 14 11 6 5 5 5 5 4 4 3 3 3 3 5 6 7 8 9 11
10 10 10 11 10 9 11 13 14 14 15 14 16 17 14 11 13 14 14 14 16 14 10 10 13 12 8 5 5 5 5 5 4 3 3 2 2 2 3 5 6 7 8 9
9 9 8 9 9 9 10 11 12 13 14 15 15 15 14 13 14 13 12 13 15 13 9 7 6 6 4 4 5 5 5 5 5 4 3 3 2 2 3 4 6 6 7 7
9 8 7 8 8 8 10 11 13 14 14 15 17 17 16 15 14 13 14 11 10 9 7 6 5 3 3 4 4 5 4 4 4 4 3 3 2 3 4 6 5 5 5 6
Wind_Direction
225 246 262 281 293 296 287 238 191 146 96 11 353 356 8 15 13 13 7 3 357 346 330 314 290 256 231 216 204 192 185 189 198 199 193 187 192 212 246 297 332 344 355 14
282 274 286 302 321 330 14 32 88 100 68 346 337 2 20 20 17 11 2 356 353 351 342 328 310 280 249 229 213 194 192 198 197 191 190 190 194 199 209 247 331 22 27 29
271 296 344 353 357 76 66 37 66 67 16 347 357 356 10 16 14 2 353 348 343 341 337 326 318 302 265 239 217 199 199 199 194 191 194 195 192 189 194 196 172 138 93 72
209 0 278 207 76 105 95 59 49 51 15 0 340 318 339 29 3 343 339 336 334 330 327 326 325 321 303 263 224 208 203 202 199 194 195 193 188 192 194 185 179 170 158 140
148 199 236 125 36 338 147 75 23 16 357 344 326 313 305 359 342 324 317 313 312 317 320 324 330 330 323 300 261 228 216 210 203 196 194 191 191 195 191 179 180 175 164 154
156 196 230 301 337 327 105 110 12 3 348 340 346 341 303 320 322 315 311 309 310 313 321 332 332 336 333 321 300 267 246 228 208 194 192 193 194 190 182 176 181 172 165 164
218 230 94 340 333 351 30 318 334 340 331 325 313 274 280 296 298 294 293 295 302 308 310 311 319 330 332 326 314 301 286 257 220 199 194 193 188 181 175 174 172 170 168 168
3 325 329 345 21 44 310 300 317 316 308 300 289 285 288 291 290 291 291 291 294 296 297 299 307 317 315 313 312 312 302 274 235 208 198 192 182 181 176 172 172 173 168 168
83 112 148 41 70 347 307 301 295 290 289 289 290 290 291 291 291 290 289 290 288 287 292 295 294 298 302 301 310 313 306 288 257 222 202 185 180 180 176 175 176 177 174 176
93 93 74 50 360 303 279 273 280 285 289 290 289 291 293 292 291 290 289 289 287 290 293 293 289 283 282 287 296 308 303 291 268 232 207 192 183 178 178 180 181 181 180 180
70 355 325 311 298 286 286 291 293 294 293 293 294 296 296 297 295 293 292 288 284 283 285 287 289 283 281 284 291 301 301 291 273 246 215 197 189 186 185 189 187 182 185 179
313 276 269 277 284 293 299 298 299 300 300 299 300 300 301 300 296 294 293 291 289 286 283 285 286 284 281 276 274 289 298 297 282 259 230 201 188 185 196 188 189 186 181 176
236 258 259 272 283 289 290 293 297 299 300 302 303 301 301 299 297 296 296 296 293 289 286 285 284 282 279 274 266 267 278 282 280 260 236 208 188 180 178 181 184 189 187 184
265 276 281 279 284 291 294 296 297 299 299 297 298 301 300 298 299 300 298 296 293 292 291 288 286 284 280 273 266 262 267 274 273 261 241 217 196 185 180 176 173 181 197 196
280 276 271 281 290 294 296 298 302 303 300 297 292 292 294 296 297 296 296 296 297 295 294 293 291 289 286 276 266 259 264 264 261 260 246 224 201 186 180 180 177 167 148 169
288 292 293 295 296 298 301 303 302 299 299 299 297 293 292 291 292 294 295 296 297 296 294 292 290 287 288 282 270 261 257 267 269 257 249 227 203 187 180 177 175 173 174 165
301 301 300 302 302 301 300 298 295 296 299 301 300 299 298 298 298 297 297 295 291 289 288 288 288 287 287 283 273 261 255 265 270 259 243 230 209 190 181 178 177 179 180 174
287 284 289 294 300 304 304 302 300 301 300 300 303 305 304 303 300 300 300 299 296 291 286 283 283 288 287 286 275 255 246 250 253 244 240 233 219 195 181 180 180 177 168 169
296 292 293 295 297 299 300 301 302 302 301 304 306 306 303 301 300 300 299 299 298 296 292 286 287 289 287 286 285 258 249 252 252 241 238 230 218 199 184 183 181 177 172 166
295 295 297 299 300 300 302 303 303 304 306 307 307 306 305 304 302 301 300 295 289 286 288 287 287 284 281 284 286 264 253 255 255 246 236 224 211 198 188 184 180 177 174 173
300 303 305 307 307 306 305 305 307 308 310 310 309 309 306 304 303 302 300 297 294 290 290 287 282 278 275 275 280 267 257 256 254 246 238 225 208 197 189 183 180 178 178 179
304 306 308 310 312 312 311 310 309 311 313 313 312 310 308 307 305 301 293 288 290 290 290 286 278 272 273 277 266 259 257 254 250 241 232 223 208 198 188 181 177 176 178 180
306 307 310 311 311 311 314 314 313 313 313 313 312 311 309 306 305 303 303 299 295 292 291 284 276 272 273 274 258 252 255 254 247 234 228 226 215 199 188 180 176 173 174 178
311 312 310 309 313 317 317 317 315 314 312 311 309 309 309 309 306 300 295 296 294 290 288 281 275 271 268 260 249 247 250 249 241 224 221 220 212 195 181 176 173 171 172 176
312 311 313 320 324 320 317 318 318 316 314 314 312 311 310 306 305 307 305 303 301 295 292 283 275 267 258 247 241 244 243 236 228 216 218 212 200 189 180 173 172 170 169 175
314 316 316 315 316 316 319 321 319 317 317 316 315 314 313 311 307 306 306 305 303 298 291 286 279 263 244 235 237 242 239 223 213 209 206 204 196 181 174 172 169 166 167 172
318 319 318 320 319 319 320 320 318 317 317 315 315 315 314 314 314 313 312 309 306 302 297 291 283 261 241 232 231 237 233 220 205 198 196 194 196 188 182 173 166 162 158 160